TimeCST,TemperatureF,Dew PointF,Humidity,Sea Level PressureIn,VisibilityMPH,Wind Direction,Wind SpeedMPH,Gust SpeedMPH,PrecipitationIn,Events,Conditions,WindDirDegrees,DateUTC
12:12 AM,29.3,22.5,76,30.02,10.0,North,6.9,-,N/A,,Mostly Cloudy,350,2013-02-28 06:12:00
12:32 AM,29.7,22.3,74,30.02,10.0,North,8.1,-,N/A,,Overcast,350,2013-02-28 06:32:00
12:52 AM,30.0,22.5,73,30.02,10.0,North,8.1,-,N/A,,Overcast,350,2013-02-28 06:52:00
1:12 AM,30.2,22.5,73,30.03,10.0,North,5.8,-,N/A,,Overcast,360,2013-02-28 07:12:00
1:32 AM,30.9,22.6,71,30.04,10.0,North,5.8,-,N/A,,Overcast,360,2013-02-28 07:32:00
1:52 AM,31.1,22.6,71,30.04,10.0,North,8.1,-,N/A,,Overcast,360,2013-02-28 07:52:00
2:12 AM,31.1,22.5,70,30.04,10.0,North,6.9,-,N/A,,Overcast,360,2013-02-28 08:12:00
2:32 AM,31.1,22.6,71,30.04,10.0,North,6.9,-,N/A,,Overcast,360,2013-02-28 08:32:00
2:52 AM,31.1,22.1,69,30.04,10.0,North,8.1,-,N/A,,Overcast,350,2013-02-28 08:52:00
3:12 AM,31.1,22.5,70,30.04,10.0,NNW,5.8,-,N/A,,Overcast,340,2013-02-28 09:12:00
3:52 AM,31.8,22.3,68,30.04,10.0,North,9.2,-,N/A,,Overcast,360,2013-02-28 09:52:00
4:32 AM,31.8,22.1,67,30.06,10.0,North,12.7,17.3,N/A,,Overcast,360,2013-02-28 10:32:00
4:52 AM,31.8,21.9,67,30.07,10.0,North,9.2,-,N/A,,Overcast,10,2013-02-28 10:52:00
5:12 AM,31.8,21.6,66,30.07,10.0,North,10.4,18.4,N/A,,Overcast,10,2013-02-28 11:12:00
5:32 AM,31.6,21.2,65,30.07,10.0,NNE,11.5,19.6,N/A,,Overcast,20,2013-02-28 11:32:00
5:52 AM,31.5,21.4,66,30.08,10.0,North,8.1,-,N/A,,Overcast,10,2013-02-28 11:52:00
6:12 AM,31.1,21.7,68,30.09,10.0,North,11.5,16.1,N/A,,Overcast,360,2013-02-28 12:12:00
6:32 AM,31.1,20.8,66,30.09,10.0,NNE,9.2,18.4,N/A,,Overcast,20,2013-02-28 12:32:00
6:52 AM,30.9,20.7,66,30.10,10.0,NNE,9.2,-,N/A,,Overcast,20,2013-02-28 12:52:00
7:12 AM,30.9,21.2,67,30.10,10.0,North,10.4,-,N/A,,Overcast,360,2013-02-28 13:12:00
7:32 AM,30.7,20.7,66,30.10,10.0,North,15.0,19.6,N/A,,Overcast,10,2013-02-28 13:32:00
7:52 AM,30.6,20.5,66,30.11,10.0,North,11.5,18.4,N/A,,Overcast,10,2013-02-28 13:52:00
8:12 AM,30.2,20.3,67,30.11,10.0,NNE,10.4,17.3,N/A,,Overcast,20,2013-02-28 14:12:00
8:32 AM,29.8,20.3,68,30.12,10.0,North,13.8,18.4,N/A,,Overcast,10,2013-02-28 14:32:00
8:52 AM,29.7,20.7,69,30.12,10.0,NNE,10.4,-,N/A,,Overcast,20,2013-02-28 14:52:00
9:12 AM,29.7,20.3,68,30.13,10.0,NNE,4.6,-,N/A,,Overcast,20,2013-02-28 15:12:00
9:32 AM,29.7,20.3,68,30.13,10.0,North,9.2,-,N/A,,Overcast,10,2013-02-28 15:32:00
9:52 AM,29.7,20.1,68,30.14,10.0,NNE,11.5,19.6,N/A,,Overcast,20,2013-02-28 15:52:00
10:12 AM,29.7,19.9,67,30.14,10.0,NNE,11.5,-,N/A,,Overcast,20,2013-02-28 16:12:00
10:32 AM,29.7,20.1,68,30.15,10.0,NNE,8.1,-,N/A,,Overcast,20,2013-02-28 16:32:00
10:52 AM,29.7,20.3,68,30.15,10.0,North,8.1,-,N/A,,Overcast,10,2013-02-28 16:52:00
11:12 AM,29.8,20.3,68,30.15,10.0,North,11.5,-,N/A,,Overcast,360,2013-02-28 17:12:00
11:32 AM,30.0,20.5,68,30.15,10.0,North,9.2,-,N/A,,Overcast,360,2013-02-28 17:32:00
11:52 AM,30.2,20.5,67,30.15,10.0,NNE,5.8,-,N/A,,Overcast,20,2013-02-28 17:52:00
12:12 PM,30.4,20.8,68,30.15,10.0,North,8.1,-,N/A,,Overcast,10,2013-02-28 18:12:00
12:32 PM,30.4,21.2,69,30.15,10.0,NNE,8.1,-,N/A,,Overcast,30,2013-02-28 18:32:00
12:52 PM,30.2,21.2,69,30.15,10.0,North,9.2,-,N/A,,Overcast,10,2013-02-28 18:52:00
1:12 PM,30.7,21.2,68,30.14,10.0,NNE,8.1,-,N/A,,Overcast,20,2013-02-28 19:12:00
1:32 PM,30.6,21.7,70,30.14,10.0,North,10.4,-,N/A,,Overcast,10,2013-02-28 19:32:00
1:52 PM,30.2,21.7,71,30.14,10.0,North,10.4,-,N/A,,Overcast,360,2013-02-28 19:52:00
2:12 PM,30.2,21.9,71,30.14,10.0,North,10.4,-,N/A,,Overcast,360,2013-02-28 20:12:00
2:32 PM,30.2,21.7,71,30.14,10.0,North,10.4,-,N/A,,Overcast,360,2013-02-28 20:32:00
2:52 PM,30.6,21.7,70,30.14,10.0,North,12.7,16.1,N/A,,Overcast,360,2013-02-28 20:52:00
3:32 PM,30.7,19.8,64,30.15,10.0,NNE,10.4,-,N/A,,Overcast,20,2013-02-28 21:32:00
3:52 PM,30.7,19.4,63,30.16,10.0,North,8.1,-,N/A,,Overcast,10,2013-02-28 21:52:00
4:12 PM,30.6,19.2,63,30.16,10.0,North,11.5,-,N/A,,Overcast,10,2013-02-28 22:12:00
4:32 PM,30.2,19.4,64,30.16,10.0,North,6.9,-,N/A,,Overcast,10,2013-02-28 22:32:00
4:52 PM,30.0,19.0,64,30.16,10.0,North,9.2,-,N/A,,Overcast,10,2013-02-28 22:52:00
5:12 PM,29.8,18.5,63,30.17,10.0,North,9.2,-,N/A,,Overcast,10,2013-02-28 23:12:00
5:32 PM,29.7,18.5,63,30.17,10.0,North,9.2,-,N/A,,Overcast,10,2013-02-28 23:32:00
5:52 PM,29.7,18.3,63,30.17,10.0,North,10.4,-,N/A,,Overcast,10,2013-02-28 23:52:00
6:12 PM,29.7,18.3,63,30.18,10.0,North,8.1,-,N/A,,Overcast,360,2013-03-01 00:12:00
6:32 PM,29.7,18.7,64,30.18,10.0,North,5.8,-,N/A,,Overcast,360,2013-03-01 00:32:00
6:52 PM,29.7,18.7,64,30.18,10.0,North,6.9,-,N/A,,Overcast,10,2013-03-01 00:52:00
7:12 PM,29.7,19.2,65,30.18,10.0,North,6.9,-,N/A,,Overcast,10,2013-03-01 01:12:00
7:32 PM,29.7,19.4,66,30.19,10.0,North,5.8,-,N/A,,Overcast,360,2013-03-01 01:32:00
7:52 PM,29.7,19.4,66,30.19,10.0,North,5.8,-,N/A,,Overcast,10,2013-03-01 01:52:00
8:12 PM,29.7,19.6,66,30.19,10.0,NNE,8.1,-,N/A,,Overcast,20,2013-03-01 02:12:00
8:32 PM,28.4,18.0,65,30.20,10.0,ENE,8.1,-,N/A,,Overcast,60,2013-03-01 02:32:00
8:52 PM,27.7,17.6,66,30.20,10.0,ENE,6.9,-,N/A,,Overcast,70,2013-03-01 02:52:00
9:12 PM,27.3,17.1,65,30.20,10.0,ENE,6.9,-,N/A,,Overcast,60,2013-03-01 03:12:00
9:32 PM,27.0,16.7,65,30.20,10.0,ENE,8.1,-,N/A,,Overcast,70,2013-03-01 03:32:00
10:12 PM,26.6,16.7,66,30.21,10.0,NE,4.6,-,N/A,,Overcast,50,2013-03-01 04:12:00
10:32 PM,26.6,16.7,66,30.21,10.0,ENE,5.8,-,N/A,,Overcast,60,2013-03-01 04:32:00
10:52 PM,26.2,16.5,67,30.22,10.0,NE,10.4,-,N/A,,Overcast,50,2013-03-01 04:52:00
11:12 PM,26.1,16.2,66,30.22,10.0,ENE,8.1,-,N/A,,Overcast,60,2013-03-01 05:12:00
11:32 PM,25.7,15.8,66,30.22,10.0,NE,8.1,-,N/A,,Overcast,50,2013-03-01 05:32:00
11:52 PM,25.7,15.8,66,30.22,10.0,NE,9.2,-,N/A,,Overcast,50,2013-03-01 05:52:00